Terug naar catalogus

STARLINK-36181

ActiefCommunicatieVLEO
NORAD 68047·PAYLOAD·🇺🇸 United States

Gelanceerd Mar 2, 2026 vanaf Vandenberg Space Force Base

Loading…

Volgende Passages (komende 24 uur)

TLE

VersSource: CelesTrak SupGP

Epoch: Sep 15, 2026, 03:01 UTC

1 68047C 26041H   26258.12618056 -.00034775  00000+0 -10273-2 0  2580
2 68047  53.1576 246.5103 0001362  95.0498 149.1715 15.34410660    11

Volg STARLINK-36181 in realtime met AllMySat

Download on the App Store